<?xml version="1.0" encoding="UTF-8" standalone="no" ?>
<gpx xmlns="http://www.topografix.com/GPX/1/1" xmlns:xsi="http://www.w3.org/2001/XMLSchema-instance" xsi:schemaLocation="http://www.topografix.com/GPX/1/1 http://www.topografix.com/GPX/1/1/gpx.xsd" version="1.1" creator="VisuGPX - https://www.visugpx.com">
  <metadata>
    <name>BelleIsleEnTerre_LocEnvel_CoatAnNoz</name>
    <desc><![CDATA[gnerando idor: 9342869_9342887]]></desc>
  </metadata>
  <trk>
    <name><![CDATA[BIET_LocEnvelCoatAnNozCourt-9342887]]></name>
    <extensions>
      <line xmlns="http://www.topografix.com/GPX/gpx_style/0/2">
        <color>00FF00</color>
        <width>4</width>
      </line>
    </extensions>
    <trkseg>
      <trkpt lat="48.54605" lon="-3.39591">
        <ele>91</ele>
        <time>2023-10-30T17:39:02Z</time>
      </trkpt>
      <trkpt lat="48.54578" lon="-3.39577">
        <ele>90</ele>
        <time>2023-10-30T17:39:40Z</time>
      </trkpt>
      <trkpt lat="48.54522" lon="-3.39568">
        <ele>93</ele>
        <time>2023-10-30T17:40:55Z</time>
      </trkpt>
      <trkpt lat="48.54471" lon="-3.39587">
        <ele>94</ele>
        <time>2023-10-30T17:42:05Z</time>
      </trkpt>
      <trkpt lat="48.54459" lon="-3.3961">
        <ele>94</ele>
        <time>2023-10-30T17:42:31Z</time>
      </trkpt>
      <trkpt lat="48.54415" lon="-3.39615">
        <ele>94</ele>
        <time>2023-10-30T17:43:30Z</time>
      </trkpt>
      <trkpt lat="48.54411" lon="-3.3976">
        <ele>95</ele>
        <time>2023-10-30T17:45:38Z</time>
      </trkpt>
      <trkpt lat="48.5432" lon="-3.39768">
        <ele>97</ele>
        <time>2023-10-30T17:47:40Z</time>
      </trkpt>
      <trkpt lat="48.54263" lon="-3.39799">
        <ele>101</ele>
        <time>2023-10-30T17:49:01Z</time>
      </trkpt>
      <trkpt lat="48.54212" lon="-3.39795">
        <ele>101</ele>
        <time>2023-10-30T17:50:09Z</time>
      </trkpt>
      <trkpt lat="48.54139" lon="-3.39794">
        <ele>103</ele>
        <time>2023-10-30T17:51:46Z</time>
      </trkpt>
      <trkpt lat="48.54066" lon="-3.39794">
        <ele>104</ele>
        <time>2023-10-30T17:53:24Z</time>
      </trkpt>
      <trkpt lat="48.53994" lon="-3.39786">
        <ele>102</ele>
        <time>2023-10-30T17:55:00Z</time>
      </trkpt>
      <trkpt lat="48.53932" lon="-3.39844">
        <ele>102</ele>
        <time>2023-10-30T17:56:37Z</time>
      </trkpt>
      <trkpt lat="48.53888" lon="-3.39931">
        <ele>113</ele>
        <time>2023-10-30T17:58:14Z</time>
      </trkpt>
      <trkpt lat="48.53819" lon="-3.39962">
        <ele>119</ele>
        <time>2023-10-30T17:59:50Z</time>
      </trkpt>
      <trkpt lat="48.53787" lon="-3.40061">
        <ele>124</ele>
        <time>2023-10-30T18:01:28Z</time>
      </trkpt>
      <trkpt lat="48.53716" lon="-3.40087">
        <ele>135</ele>
        <time>2023-10-30T18:03:05Z</time>
      </trkpt>
      <trkpt lat="48.53653" lon="-3.40153">
        <ele>141</ele>
        <time>2023-10-30T18:04:47Z</time>
      </trkpt>
      <trkpt lat="48.53603" lon="-3.40108">
        <ele>143</ele>
        <time>2023-10-30T18:06:05Z</time>
      </trkpt>
      <trkpt lat="48.53538" lon="-3.40156">
        <ele>147</ele>
        <time>2023-10-30T18:07:42Z</time>
      </trkpt>
      <trkpt lat="48.53483" lon="-3.40229">
        <ele>150</ele>
        <time>2023-10-30T18:09:19Z</time>
      </trkpt>
      <trkpt lat="48.53414" lon="-3.40196">
        <ele>151</ele>
        <time>2023-10-30T18:10:56Z</time>
      </trkpt>
      <trkpt lat="48.53346" lon="-3.40159">
        <ele>153</ele>
        <time>2023-10-30T18:12:32Z</time>
      </trkpt>
      <trkpt lat="48.53274" lon="-3.40149">
        <ele>156</ele>
        <time>2023-10-30T18:14:09Z</time>
      </trkpt>
      <trkpt lat="48.53211" lon="-3.40096">
        <ele>158</ele>
        <time>2023-10-30T18:15:45Z</time>
      </trkpt>
      <trkpt lat="48.53147" lon="-3.40042">
        <ele>158</ele>
        <time>2023-10-30T18:17:23Z</time>
      </trkpt>
      <trkpt lat="48.5308" lon="-3.4">
        <ele>154</ele>
        <time>2023-10-30T18:19:00Z</time>
      </trkpt>
      <trkpt lat="48.53012" lon="-3.39961">
        <ele>146</ele>
        <time>2023-10-30T18:20:37Z</time>
      </trkpt>
      <trkpt lat="48.52944" lon="-3.39928">
        <ele>141</ele>
        <time>2023-10-30T18:22:12Z</time>
      </trkpt>
      <trkpt lat="48.52877" lon="-3.39883">
        <ele>134</ele>
        <time>2023-10-30T18:23:50Z</time>
      </trkpt>
      <trkpt lat="48.52809" lon="-3.39845">
        <ele>126</ele>
        <time>2023-10-30T18:25:27Z</time>
      </trkpt>
      <trkpt lat="48.52736" lon="-3.39841">
        <ele>125</ele>
        <time>2023-10-30T18:27:04Z</time>
      </trkpt>
      <trkpt lat="48.52667" lon="-3.39874">
        <ele>122</ele>
        <time>2023-10-30T18:28:41Z</time>
      </trkpt>
      <trkpt lat="48.52608" lon="-3.39939">
        <ele>122</ele>
        <time>2023-10-30T18:30:18Z</time>
      </trkpt>
      <trkpt lat="48.52545" lon="-3.39995">
        <ele>124</ele>
        <time>2023-10-30T18:31:56Z</time>
      </trkpt>
      <trkpt lat="48.52473" lon="-3.40011">
        <ele>119</ele>
        <time>2023-10-30T18:33:33Z</time>
      </trkpt>
      <trkpt lat="48.52402" lon="-3.39995">
        <ele>112</ele>
        <time>2023-10-30T18:35:09Z</time>
      </trkpt>
      <trkpt lat="48.52331" lon="-3.40014">
        <ele>109</ele>
        <time>2023-10-30T18:36:45Z</time>
      </trkpt>
      <trkpt lat="48.52268" lon="-3.40069">
        <ele>116</ele>
        <time>2023-10-30T18:38:22Z</time>
      </trkpt>
      <trkpt lat="48.522" lon="-3.40105">
        <ele>113</ele>
        <time>2023-10-30T18:39:58Z</time>
      </trkpt>
      <trkpt lat="48.5213" lon="-3.40136">
        <ele>110</ele>
        <time>2023-10-30T18:41:36Z</time>
      </trkpt>
      <trkpt lat="48.52061" lon="-3.40167">
        <ele>109</ele>
        <time>2023-10-30T18:43:12Z</time>
      </trkpt>
      <trkpt lat="48.52" lon="-3.40227">
        <ele>110</ele>
        <time>2023-10-30T18:44:49Z</time>
      </trkpt>
      <trkpt lat="48.51944" lon="-3.40296">
        <ele>111</ele>
        <time>2023-10-30T18:46:25Z</time>
      </trkpt>
      <trkpt lat="48.51896" lon="-3.40378">
        <ele>114</ele>
        <time>2023-10-30T18:48:02Z</time>
      </trkpt>
      <trkpt lat="48.51869" lon="-3.40479">
        <ele>113</ele>
        <time>2023-10-30T18:49:38Z</time>
      </trkpt>
      <trkpt lat="48.51906" lon="-3.40573">
        <ele>113</ele>
        <time>2023-10-30T18:51:15Z</time>
      </trkpt>
      <trkpt lat="48.51993" lon="-3.40746">
        <ele>120</ele>
        <time>2023-10-30T18:54:27Z</time>
      </trkpt>
      <trkpt lat="48.5202" lon="-3.40847">
        <ele>120</ele>
        <time>2023-10-30T18:56:03Z</time>
      </trkpt>
      <trkpt lat="48.52033" lon="-3.40955">
        <ele>118</ele>
        <time>2023-10-30T18:57:40Z</time>
      </trkpt>
      <trkpt lat="48.5204" lon="-3.41064">
        <ele>116</ele>
        <time>2023-10-30T18:59:17Z</time>
      </trkpt>
      <trkpt lat="48.52045" lon="-3.41174">
        <ele>114</ele>
        <time>2023-10-30T19:00:54Z</time>
      </trkpt>
      <trkpt lat="48.52088" lon="-3.41263">
        <ele>120</ele>
        <time>2023-10-30T19:02:32Z</time>
      </trkpt>
      <trkpt lat="48.52058" lon="-3.41363">
        <ele>118</ele>
        <time>2023-10-30T19:04:09Z</time>
      </trkpt>
      <trkpt lat="48.52051" lon="-3.41473">
        <ele>121</ele>
        <time>2023-10-30T19:05:47Z</time>
      </trkpt>
      <trkpt lat="48.52025" lon="-3.41577">
        <ele>119</ele>
        <time>2023-10-30T19:07:25Z</time>
      </trkpt>
      <trkpt lat="48.52001" lon="-3.4168">
        <ele>122</ele>
        <time>2023-10-30T19:09:01Z</time>
      </trkpt>
      <trkpt lat="48.51965" lon="-3.41774">
        <ele>126</ele>
        <time>2023-10-30T19:10:37Z</time>
      </trkpt>
      <trkpt lat="48.51899" lon="-3.41821">
        <ele>119</ele>
        <time>2023-10-30T19:12:15Z</time>
      </trkpt>
      <trkpt lat="48.51834" lon="-3.4187">
        <ele>116</ele>
        <time>2023-10-30T19:13:52Z</time>
      </trkpt>
      <trkpt lat="48.51761" lon="-3.41883">
        <ele>111</ele>
        <time>2023-10-30T19:15:30Z</time>
      </trkpt>
      <trkpt lat="48.51699" lon="-3.41828">
        <ele>109</ele>
        <time>2023-10-30T19:17:06Z</time>
      </trkpt>
      <trkpt lat="48.51641" lon="-3.41763">
        <ele>115</ele>
        <time>2023-10-30T19:18:42Z</time>
      </trkpt>
      <trkpt lat="48.51587" lon="-3.41688">
        <ele>121</ele>
        <time>2023-10-30T19:20:20Z</time>
      </trkpt>
      <trkpt lat="48.51519" lon="-3.41654">
        <ele>122</ele>
        <time>2023-10-30T19:21:56Z</time>
      </trkpt>
      <trkpt lat="48.51489" lon="-3.41753">
        <ele>132</ele>
        <time>2023-10-30T19:23:32Z</time>
      </trkpt>
      <trkpt lat="48.51427" lon="-3.4181">
        <ele>128</ele>
        <time>2023-10-30T19:25:09Z</time>
      </trkpt>
      <trkpt lat="48.51355" lon="-3.41814">
        <ele>125</ele>
        <time>2023-10-30T19:26:45Z</time>
      </trkpt>
      <trkpt lat="48.51315" lon="-3.41722">
        <ele>123</ele>
        <time>2023-10-30T19:28:22Z</time>
      </trkpt>
      <trkpt lat="48.51361" lon="-3.41639">
        <ele>126</ele>
        <time>2023-10-30T19:29:58Z</time>
      </trkpt>
      <trkpt lat="48.51393" lon="-3.4154">
        <ele>131</ele>
        <time>2023-10-30T19:31:35Z</time>
      </trkpt>
      <trkpt lat="48.51412" lon="-3.41435">
        <ele>135</ele>
        <time>2023-10-30T19:33:11Z</time>
      </trkpt>
      <trkpt lat="48.51437" lon="-3.41333">
        <ele>137</ele>
        <time>2023-10-30T19:34:47Z</time>
      </trkpt>
      <trkpt lat="48.5143" lon="-3.41224">
        <ele>143</ele>
        <time>2023-10-30T19:36:24Z</time>
      </trkpt>
      <trkpt lat="48.5148" lon="-3.41144">
        <ele>144</ele>
        <time>2023-10-30T19:38:02Z</time>
      </trkpt>
      <trkpt lat="48.51525" lon="-3.4106">
        <ele>144</ele>
        <time>2023-10-30T19:39:37Z</time>
      </trkpt>
      <trkpt lat="48.51565" lon="-3.40969">
        <ele>144</ele>
        <time>2023-10-30T19:41:14Z</time>
      </trkpt>
      <trkpt lat="48.51635" lon="-3.40939">
        <ele>140</ele>
        <time>2023-10-30T19:42:51Z</time>
      </trkpt>
      <trkpt lat="48.51651" lon="-3.40832">
        <ele>139</ele>
        <time>2023-10-30T19:44:28Z</time>
      </trkpt>
      <trkpt lat="48.51644" lon="-3.40723">
        <ele>146</ele>
        <time>2023-10-30T19:46:04Z</time>
      </trkpt>
      <trkpt lat="48.51689" lon="-3.40638">
        <ele>146</ele>
        <time>2023-10-30T19:47:41Z</time>
      </trkpt>
      <trkpt lat="48.51732" lon="-3.40551">
        <ele>143</ele>
        <time>2023-10-30T19:49:17Z</time>
      </trkpt>
      <trkpt lat="48.51744" lon="-3.40443">
        <ele>146</ele>
        <time>2023-10-30T19:50:53Z</time>
      </trkpt>
      <trkpt lat="48.51756" lon="-3.40334">
        <ele>147</ele>
        <time>2023-10-30T19:52:31Z</time>
      </trkpt>
      <trkpt lat="48.51794" lon="-3.40242">
        <ele>141</ele>
        <time>2023-10-30T19:54:07Z</time>
      </trkpt>
      <trkpt lat="48.51817" lon="-3.40138">
        <ele>143</ele>
        <time>2023-10-30T19:55:44Z</time>
      </trkpt>
      <trkpt lat="48.5176" lon="-3.40071">
        <ele>153</ele>
        <time>2023-10-30T19:57:20Z</time>
      </trkpt>
      <trkpt lat="48.51707" lon="-3.39996">
        <ele>157</ele>
        <time>2023-10-30T19:58:57Z</time>
      </trkpt>
      <trkpt lat="48.51645" lon="-3.39938">
        <ele>162</ele>
        <time>2023-10-30T20:00:34Z</time>
      </trkpt>
      <trkpt lat="48.51583" lon="-3.39883">
        <ele>164</ele>
        <time>2023-10-30T20:02:10Z</time>
      </trkpt>
      <trkpt lat="48.51599" lon="-3.39713">
        <ele>168</ele>
        <time>2023-10-30T20:04:42Z</time>
      </trkpt>
      <trkpt lat="48.5168" lon="-3.39701">
        <ele>165</ele>
        <time>2023-10-30T20:06:31Z</time>
      </trkpt>
      <trkpt lat="48.51698" lon="-3.3986">
        <ele>158</ele>
        <time>2023-10-30T20:08:53Z</time>
      </trkpt>
      <trkpt lat="48.51914" lon="-3.40113">
        <ele>113</ele>
        <time>2023-10-30T20:14:58Z</time>
      </trkpt>
      <trkpt lat="48.51914" lon="-3.40153">
        <ele>107</ele>
        <time>2023-10-30T20:15:34Z</time>
      </trkpt>
      <trkpt lat="48.51972" lon="-3.4024">
        <ele>110</ele>
        <time>2023-10-30T20:17:23Z</time>
      </trkpt>
      <trkpt lat="48.52122" lon="-3.40113">
        <ele>108</ele>
        <time>2023-10-30T20:21:12Z</time>
      </trkpt>
      <trkpt lat="48.52166" lon="-3.40291">
        <ele>123</ele>
        <time>2023-10-30T20:24:00Z</time>
      </trkpt>
      <trkpt lat="48.52218" lon="-3.40355">
        <ele>133</ele>
        <time>2023-10-30T20:25:30Z</time>
      </trkpt>
      <trkpt lat="48.52208" lon="-3.40398">
        <ele>135</ele>
        <time>2023-10-30T20:26:10Z</time>
      </trkpt>
      <trkpt lat="48.5216" lon="-3.40391">
        <ele>131</ele>
        <time>2023-10-30T20:27:14Z</time>
      </trkpt>
      <trkpt lat="48.52197" lon="-3.40974">
        <ele>154</ele>
        <time>2023-10-30T20:35:52Z</time>
      </trkpt>
      <trkpt lat="48.52255" lon="-3.40994">
        <ele>159</ele>
        <time>2023-10-30T20:37:11Z</time>
      </trkpt>
      <trkpt lat="48.52267" lon="-3.40973">
        <ele>160</ele>
        <time>2023-10-30T20:37:36Z</time>
      </trkpt>
      <trkpt lat="48.52282" lon="-3.40952">
        <ele>160</ele>
        <time>2023-10-30T20:38:03Z</time>
      </trkpt>
      <trkpt lat="48.52365" lon="-3.41056">
        <ele>155</ele>
        <time>2023-10-30T20:40:27Z</time>
      </trkpt>
      <trkpt lat="48.52406" lon="-3.41057">
        <ele>156</ele>
        <time>2023-10-30T20:41:22Z</time>
      </trkpt>
      <trkpt lat="48.52595" lon="-3.41106">
        <ele>163</ele>
        <time>2023-10-30T20:45:38Z</time>
      </trkpt>
      <trkpt lat="48.52609" lon="-3.41274">
        <ele>161</ele>
        <time>2023-10-30T20:48:07Z</time>
      </trkpt>
      <trkpt lat="48.52557" lon="-3.41488">
        <ele>158</ele>
        <time>2023-10-30T20:51:29Z</time>
      </trkpt>
      <trkpt lat="48.52602" lon="-3.41554">
        <ele>161</ele>
        <time>2023-10-30T20:52:53Z</time>
      </trkpt>
      <trkpt lat="48.52987" lon="-3.41676">
        <ele>173</ele>
        <time>2023-10-30T21:01:37Z</time>
      </trkpt>
      <trkpt lat="48.53068" lon="-3.41344">
        <ele>171</ele>
        <time>2023-10-30T21:06:50Z</time>
      </trkpt>
      <trkpt lat="48.53054" lon="-3.41207">
        <ele>170</ele>
        <time>2023-10-30T21:08:53Z</time>
      </trkpt>
      <trkpt lat="48.53306" lon="-3.40572">
        <ele>163</ele>
        <time>2023-10-30T21:19:47Z</time>
      </trkpt>
      <trkpt lat="48.53489" lon="-3.40261">
        <ele>150</ele>
        <time>2023-10-30T21:25:54Z</time>
      </trkpt>
      <trkpt lat="48.53585" lon="-3.40082">
        <ele>144</ele>
        <time>2023-10-30T21:29:18Z</time>
      </trkpt>
      <trkpt lat="48.5366" lon="-3.40176">
        <ele>141</ele>
        <time>2023-10-30T21:31:28Z</time>
      </trkpt>
      <trkpt lat="48.53719" lon="-3.40065">
        <ele>134</ele>
        <time>2023-10-30T21:33:34Z</time>
      </trkpt>
      <trkpt lat="48.53769" lon="-3.40123">
        <ele>128</ele>
        <time>2023-10-30T21:34:58Z</time>
      </trkpt>
      <trkpt lat="48.53791" lon="-3.39973">
        <ele>122</ele>
        <time>2023-10-30T21:37:14Z</time>
      </trkpt>
      <trkpt lat="48.53857" lon="-3.39971">
        <ele>116</ele>
        <time>2023-10-30T21:38:42Z</time>
      </trkpt>
      <trkpt lat="48.53969" lon="-3.39792">
        <ele>102</ele>
        <time>2023-10-30T21:42:19Z</time>
      </trkpt>
      <trkpt lat="48.54268" lon="-3.39799">
        <ele>101</ele>
        <time>2023-10-30T21:48:59Z</time>
      </trkpt>
      <trkpt lat="48.54324" lon="-3.39762">
        <ele>97</ele>
        <time>2023-10-30T21:50:20Z</time>
      </trkpt>
      <trkpt lat="48.5429" lon="-3.3969">
        <ele>96</ele>
        <time>2023-10-30T21:51:38Z</time>
      </trkpt>
      <trkpt lat="48.54276" lon="-3.39572">
        <ele>99</ele>
        <time>2023-10-30T21:53:24Z</time>
      </trkpt>
      <trkpt lat="48.54371" lon="-3.39576">
        <ele>95</ele>
        <time>2023-10-30T21:55:31Z</time>
      </trkpt>
      <trkpt lat="48.54416" lon="-3.39618">
        <ele>94</ele>
        <time>2023-10-30T21:56:42Z</time>
      </trkpt>
      <trkpt lat="48.54465" lon="-3.39602">
        <ele>94</ele>
        <time>2023-10-30T21:57:48Z</time>
      </trkpt>
      <trkpt lat="48.54468" lon="-3.39581">
        <ele>94</ele>
        <time>2023-10-30T21:58:07Z</time>
      </trkpt>
      <trkpt lat="48.54521" lon="-3.39577">
        <ele>93</ele>
        <time>2023-10-30T21:59:18Z</time>
      </trkpt>
      <trkpt lat="48.54566" lon="-3.39559">
        <ele>91</ele>
        <time>2023-10-30T22:00:20Z</time>
      </trkpt>
      <trkpt lat="48.54605" lon="-3.39575">
        <ele>91</ele>
        <time>2023-10-30T22:01:14Z</time>
      </trkpt>
    </trkseg>
  </trk>
</gpx>